OpenBCM V2.0.2 (Linux)

Packet Radio Mailbox

IZ3LSV

[San Dona' di P. JN]

 Login: GUEST





  
CX2SA  > KEP      26.04.08 02:42l 76 Lines 3122 Bytes #999 (0) @ WW
BID : ARLK031
Read: GUEST
Subj: ARLK031 Keplerian data
Path: IZ3LSV<IW0QNL<ON4HU<VE3UIL<VK2DOT<CX2SA
Sent: 080426/0033Z @:CX2SA.LAV.URY.SA #:63393 [Minas] FBB7.00e $:ARLK031
From: CX2SA@CX2SA.LAV.URY.SA
To  : KEP@ARL


ZCZC SK31
QST de W1AW  
Keplerian Bulletin 31  ARLK031
From ARRL Headquarters
Newington, CT  April 25, 2008
To all radio amateurs 

SB KEP ARL ARLK031
ARLK031 Keplerian data

Special thanks to Space-Track for the following Keplerian data.

Decode 2-line elsets with the following key:
1 AAAAAU 00  0  0 BBBBB.BBBBBBBB  .CCCCCCCC  00000-0  00000-0 0  DDDZ
2 AAAAA EEE.EEEE FFF.FFFF GGGGGGG HHH.HHHH III.IIII JJ.JJJJJJJJKKKKKZ
KEY: A-CATALOGNUM B-EPOCHTIME C-DECAY D-ELSETNUM E-INCLINATION F-RAAN
G-ECCENTRICITY H-ARGPERIGEE I-MNANOM J-MNMOTION K-ORBITNUM Z-CHECKSUM

AO-07
1 07530U 74089B   08115.66366035 -.00000027 +00000-0 +10000-3 0 01607
2 07530 101.4703 148.9421 0011862 008.0371 352.0887 12.53573849530276
UO-11
1 14781U 84021B   08115.89729039 -.00000101 +00000-0 -61164-5 0 06543
2 14781 098.1587 149.1227 0008134 240.9646 119.0716 14.79635283295979
AO-16
1 20439U 90005D   08116.44905683 -.00000017  00000-0  89415-5 0  3059
2 20439 098.2262 099.2169 0010871 339.4785 020.5970 14.31791012953370
AO-27
1 22825U 93061C   08116.41510561  .00000041  00000-0  32367-4 0  9537
2 22825 098.3807 078.4290 0009293 059.6742 300.5358 14.29237002760234
IO-26
1 22826U 93061D   08116.40832296  .00000012  00000-0  21118-4 0  6570
2 22826 098.3729 079.3560 0009839 056.3053 303.9070 14.29485305760322
PO-28
1 22829U 93061G   08115.86099701 -.00000025 +00000-0 +63591-5 0 09309
2 22829 098.3603 079.9436 0010494 031.5879 328.5944 14.30186786760500
FO-29
1 24278U 96046B   08115.94991891 -.00000010 +00000-0 +27407-4 0 07571
2 24278 098.5881 039.1981 0351002 353.5124 006.1531 13.52937384577199
GO-32
1 25397U 98043D   08115.88807125 -.00000104 +00000-0 -27779-4 0 05836
2 25397 098.3690 153.6710 0001915 063.1068 297.0307 14.23141615508634
ISS
1 25544U 98067A   08116.88024331  .00077069  00000-0  49022-3 0  3730
2 25544 051.6426 285.9288 0007044 138.7009 006.6563 15.75731553540277
MO-46
1 26548U 00057D   08116.44269422  .00000123  00000-0  33032-4 0   819
2 26548 064.5561 293.4814 0023793 331.5611 028.4202 14.83253176409998
NO-44
1 26931U 01043C   08116.32275142 -.00000256  00000-0 -67648-4 0  8620
2 26931 067.0528 060.8394 0005993 279.4262 080.6160 14.29519120342856
SO-50
1 27607U 02058C   08115.71943798 +.00000116 +00000-0 +39771-4 0 05883
2 27607 064.5594 216.0172 0083893 289.8970 069.3109 14.71348236287105
CO-55
1 27844U 03031E   08116.32987097  .00000127  00000-0  79589-4 0  2897
2 27844 098.7170 125.3293 0008974 271.0004 089.0149 14.20575516249930
AO-51
1 28375U 04025K   08116.12331559  .00000013  00000-0  16838-4 0   840
2 28375 098.0761 143.6682 0084111 314.6228 044.8120 14.40604644200766
VO-52
1 28650U 05017B   08116.38569581  .00000117  00000-0  21557-4 0  9134
2 28650 097.7916 184.4365 0026237 314.9018 045.0018 14.81453094160788
HO-59
1 29484U 06041F   08116.34213292  .00246778  24768-4  58716-3 0  3348
2 29484 098.2436 225.6294 0087879 197.7204 162.0976 15.90007848 90080

Keplerian bulletins are transmitted twice weekly from W1AW.  The
next scheduled transmission of these data will be Tuesday, April 29,
2008, at 2230z on Baudot and AMTOR.
NNNN


Read previous mail | Read next mail


 05.05.2026 11:28:17lGo back Go up